EN

Hourly Weather Lagowka

Today, 24 July, Saturday

Time Temperature Precipitation Wind Pressure Humidity
00:00 +19°C° 0 mm 1 mps 738 mmHg 72%
01:00 +19°C° 0 mm 1 mps 737 mmHg 72%
02:00 +19°C° 0 mm 1 mps 737 mmHg 73%
03:00 +19°C° 0 mm 1 mps 737 mmHg 73%
04:00 +18°C° 0 mm 1 mps 737 mmHg 74%
05:00 +19°C° 0 mm 1 mps 737 mmHg 73%
06:00 +19°C° 0 mm 1 mps 737 mmHg 73%
07:00 +20°C° 0 mm 1 mps 737 mmHg 72%
08:00 +21°C° 0 mm 1 mps 737 mmHg 68%
09:00 +21°C° 0 mm 2 mps 738 mmHg 63%
10:00 +23°C° 0 mm 2 mps 738 mmHg 59%
11:00 +25°C° 0 mm 2 mps 738 mmHg 55%
12:00 +26°C° 0 mm 2 mps 737 mmHg 50%
13:00 +27°C° 0 mm 3 mps 737 mmHg 46%
14:00 +26°C° 0 mm 2 mps 737 mmHg 47%
15:00 +26°C° 0 mm 2 mps 737 mmHg 49%
16:00 +26°C° 0 mm 2 mps 737 mmHg 51%
17:00 +25°C° 0 mm 2 mps 737 mmHg 55%
18:00 +24°C° 0 mm 2 mps 737 mmHg 60%
19:00 +23°C° 0 mm 2 mps 736 mmHg 64%
20:00 +21°C° 0 mm 2 mps 737 mmHg 65%
21:00 +21°C° 0 mm 3 mps 737 mmHg 65%
22:00 +20°C° 0 mm 3 mps 737 mmHg 66%
23:00 +19°C° 0 mm 3 mps 736 mmHg 69%

Tomorrow, 25 July, Sunday

Time Temperature Precipitation Wind Pressure Humidity
00:00 +19°C° 0 mm 3 mps 736 mmHg 73%
01:00 +18°C° 0 mm 3 mps 736 mmHg 77%
02:00 +18°C° 0 mm 3 mps 736 mmHg 77%
03:00 +18°C° 0 mm 2 mps 736 mmHg 77%
04:00 +18°C° 0 mm 2 mps 736 mmHg 78%
05:00 +19°C° 0 mm 2 mps 736 mmHg 74%
06:00 +20°C° 0 mm 2 mps 736 mmHg 70%
07:00 +21°C° 0 mm 2 mps 736 mmHg 66%
08:00 +24°C° 0 mm 3 mps 737 mmHg 60%
09:00 +26°C° 0 mm 3 mps 737 mmHg 54%
10:00 +28°C° 0 mm 4 mps 737 mmHg 48%
11:00 +29°C° 0 mm 4 mps 736 mmHg 44%
12:00 +30°C° 0 mm 4 mps 736 mmHg 40%
13:00 +32°C° 0 mm 4 mps 736 mmHg 36%
14:00 +32°C° 0 mm 4 mps 736 mmHg 38%
15:00 +30°C° 0 mm 4 mps 736 mmHg 39%
16:00 +30°C° 0 mm 4 mps 736 mmHg 41%
17:00 +29°C° 0 mm 5 mps 736 mmHg 45%
18:00 +27°C° 0 mm 5 mps 736 mmHg 50%
19:00 +25°C° 0 mm 5 mps 736 mmHg 54%
20:00 +25°C° 0 mm 5 mps 736 mmHg 56%
21:00 +25°C° 0 mm 5 mps 736 mmHg 59%
22:00 +23°C° 0 mm 5 mps 736 mmHg 61%
23:00 +22°C° 0 mm 5 mps 735 mmHg 65%

Day after tomorrow, 26 July, Monday

Time Temperature Precipitation Wind Pressure Humidity
00:00 +22°C° 0 mm 4 mps 735 mmHg 69%
01:00 +21°C° 0 mm 4 mps 735 mmHg 73%
02:00 +20°C° 0.2 mm 4 mps 735 mmHg 75%
03:00 +20°C° 0.2 mm 4 mps 735 mmHg 78%
04:00 +19°C° 0.2 mm 4 mps 734 mmHg 80%
05:00 +20°C° 0.2 mm 4 mps 735 mmHg 77%
06:00 +21°C° 0.2 mm 5 mps 735 mmHg 74%
07:00 +22°C° 0.2 mm 5 mps 735 mmHg 70%
08:00 +25°C° 0 mm 5 mps 735 mmHg 63%
09:00 +27°C° 0 mm 5 mps 735 mmHg 55%
10:00 +29°C° 0 mm 5 mps 735 mmHg 48%
11:00 +30°C° 0 mm 5 mps 735 mmHg 46%
12:00 +32°C° 0 mm 4 mps 735 mmHg 44%
13:00 +33°C° 0 mm 4 mps 735 mmHg 43%
14:00 +32°C° 0 mm 4 mps 735 mmHg 44%
15:00 +31°C° 0 mm 3 mps 735 mmHg 46%
16:00 +31°C° 0 mm 3 mps 735 mmHg 47%
17:00 +28°C° 2.1 mm 3 mps 735 mmHg 61%
18:00 +25°C° 2.1 mm 2 mps 735 mmHg 75%
19:00 +20°C° 2.1 mm 2 mps 735 mmHg 88%
20:00 +20°C° 0.3 mm 2 mps 735 mmHg 88%
21:00 +20°C° 0.3 mm 2 mps 735 mmHg 88%
22:00 +19°C° 0.3 mm 2 mps 735 mmHg 88%
23:00 +20°C° 0.2 mm 1 mps 735 mmHg 89%

27 July, Tuesday

Time Temperature Precipitation Wind Pressure Humidity
00:00 +20°C° 0.2 mm 1 mps 735 mmHg 90%
01:00 +20°C° 0.2 mm 1 mps 735 mmHg 90%
02:00 +20°C° 0.3 mm 1 mps 735 mmHg 91%
03:00 +20°C° 0.3 mm 1 mps 735 mmHg 91%
04:00 +20°C° 0.3 mm 1 mps 735 mmHg 92%
05:00 +21°C° 0.4 mm 1 mps 735 mmHg 89%
06:00 +22°C° 0.4 mm 1 mps 735 mmHg 87%
07:00 +23°C° 0.4 mm 1 mps 736 mmHg 84%
08:00 +24°C° 0 mm 1 mps 736 mmHg 77%
09:00 +26°C° 0 mm 1 mps 736 mmHg 71%
10:00 +28°C° 0 mm 1 mps 736 mmHg 64%
11:00 +29°C° 0.2 mm 1 mps 736 mmHg 60%
12:00 +30°C° 0.2 mm 1 mps 736 mmHg 57%
13:00 +30°C° 0.2 mm 1 mps 736 mmHg 53%
14:00 +30°C° 0.2 mm 1 mps 736 mmHg 54%
15:00 +30°C° 0.2 mm 1 mps 735 mmHg 55%
16:00 +30°C° 0.2 mm 1 mps 735 mmHg 56%
17:00 +28°C° 0.1 mm 1 mps 735 mmHg 61%
18:00 +27°C° 0.1 mm 1 mps 734 mmHg 67%
19:00 +26°C° 0.1 mm 1 mps 734 mmHg 72%
20:00 +24°C° 2.1 mm 2 mps 734 mmHg 78%
21:00 +21°C° 2.1 mm 3 mps 734 mmHg 84%
22:00 +19°C° 2.1 mm 5 mps 735 mmHg 90%
23:00 +19°C° 0.2 mm 4 mps 735 mmHg 91%

28 July, Wednesday

Time Temperature Precipitation Wind Pressure Humidity
00:00 +18°C° 0.2 mm 3 mps 734 mmHg 93%
01:00 +18°C° 0.2 mm 2 mps 734 mmHg 94%
02:00 +18°C° 0.1 mm 2 mps 734 mmHg 95%
03:00 +18°C° 0.1 mm 2 mps 734 mmHg 96%
04:00 +18°C° 0.1 mm 2 mps 734 mmHg 97%
05:00 +19°C° 0.1 mm 3 mps 734 mmHg 94%
06:00 +20°C° 0.1 mm 4 mps 735 mmHg 90%
07:00 +21°C° 0.1 mm 4 mps 735 mmHg 87%
08:00 +22°C° 0.1 mm 4 mps 735 mmHg 81%
09:00 +23°C° 0.1 mm 5 mps 735 mmHg 76%
10:00 +25°C° 0.1 mm 5 mps 735 mmHg 70%
11:00 +23°C° 0.6 mm 5 mps 736 mmHg 71%
12:00 +23°C° 0.6 mm 5 mps 736 mmHg 72%
13:00 +23°C° 0.6 mm 5 mps 736 mmHg 74%
14:00 +23°C° 0.3 mm 5 mps 736 mmHg 73%
15:00 +23°C° 0.3 mm 4 mps 736 mmHg 73%
16:00 +23°C° 0.3 mm 4 mps 736 mmHg 73%
17:00 +24°C° 0.2 mm 3 mps 736 mmHg 76%
18:00 +22°C° 0.2 mm 3 mps 736 mmHg 79%
19:00 +21°C° 0.2 mm 2 mps 736 mmHg 82%
20:00 +20°C° 0 mm 2 mps 736 mmHg 83%
21:00 +19°C° 0 mm 2 mps 737 mmHg 84%
22:00 +18°C° 0 mm 2 mps 737 mmHg 85%
23:00 +18°C° 0 mm 2 mps 737 mmHg 85%

29 July, Thursday

Time Temperature Precipitation Wind Pressure Humidity
00:00 +17°C° 0 mm 2 mps 737 mmHg 84%
01:00 +17°C° 0 mm 2 mps 737 mmHg 83%
02:00 +17°C° 0 mm 2 mps 737 mmHg 83%
03:00 +16°C° 0 mm 2 mps 737 mmHg 83%
04:00 +16°C° 0 mm 2 mps 737 mmHg 83%
05:00 +18°C° 0 mm 2 mps 738 mmHg 78%
06:00 +20°C° 0 mm 2 mps 738 mmHg 73%
07:00 +21°C° 0 mm 2 mps 738 mmHg 69%
08:00 +24°C° 0 mm 2 mps 738 mmHg 62%
09:00 +25°C° 0 mm 2 mps 738 mmHg 56%
10:00 +27°C° 0 mm 2 mps 738 mmHg 50%
11:00 +28°C° 0 mm 2 mps 738 mmHg 47%
12:00 +28°C° 0 mm 2 mps 738 mmHg 45%
13:00 +29°C° 0 mm 2 mps 738 mmHg 43%
14:00 +28°C° 0 mm 2 mps 738 mmHg 45%
15:00 +28°C° 0 mm 2 mps 737 mmHg 48%
16:00 +28°C° 0 mm 1 mps 737 mmHg 50%
17:00 +27°C° 0 mm 1 mps 737 mmHg 55%
18:00 +25°C° 0 mm 1 mps 737 mmHg 59%
19:00 +24°C° 0 mm 1 mps 737 mmHg 63%
20:00 +23°C° 0 mm 1 mps 737 mmHg 64%
21:00 +23°C° 0 mm 2 mps 737 mmHg 64%
22:00 +21°C° 0 mm 2 mps 737 mmHg 65%
23:00 +20°C° 0 mm 2 mps 737 mmHg 67%
Show more